Wind_Speed
31 31 31 31 31 30 31 33 35 37 38 37 35 33 32 31 31 31 31 31 30 30 29 28 27 27 26 26 25 25 25 26 26 27 27 28 28 29
35 35 35 35 34 33 32 32 34 35 36 37 36 34 32 31 30 31 31 31 31 31 30 29 28 27 26 26 26 26 26 26 26 26 27 28 29 30
39 39 38 37 37 36 36 35 36 36 36 36 36 34 33 31 30 30 30 30 30 30 30 29 28 27 26 25 25 26 26 26 26 27 28 28 30 30
40 40 40 39 37 37 37 36 36 36 35 35 34 32 31 30 29 29 28 29 28 29 28 28 27 25 25 24 25 26 26 26 27 27 28 29 29 30
37 38 38 38 38 37 37 37 36 35 34 33 31 31 30 29 28 28 27 26 26 26 25 24 23 23 22 23 24 25 25 25 26 27 27 28 28 29
30 32 33 34 35 36 37 37 35 34 33 32 31 29 29 28 27 26 25 24 24 23 22 21 20 20 21 21 22 24 24 25 26 27 28 29 29 30
25 26 27 28 30 32 33 33 32 31 32 31 29 27 26 25 24 23 22 22 20 19 18 18 18 19 20 20 21 22 22 23 24 25 26 28 29 30
22 23 24 24 25 27 28 29 29 28 28 28 27 25 24 23 22 21 20 19 18 18 17 17 17 17 18 18 18 19 20 21 22 23 24 26 28 30
20 20 20 21 22 21 20 21 23 24 23 23 22 21 21 20 20 19 18 18 17 16 16 16 16 15 15 16 16 17 18 19 20 22 23 25 26 29
18 19 19 18 18 17 15 16 18 19 19 20 19 18 18 18 17 17 17 16 15 14 14 14 14 13 14 14 15 16 17 19 20 22 23 25 27 28
17 18 18 18 17 16 15 14 14 14 16 17 17 16 15 15 14 14 14 13 13 13 12 12 12 12 12 12 13 14 16 17 18 20 21 22 23 23
17 18 19 19 18 17 16 14 12 13 13 13 14 14 13 13 13 13 12 12 11 11 11 10 10 10 9 9 10 11 12 14 14 15 16 16 16 17
15 17 17 18 19 17 16 14 11 11 11 11 12 12 12 11 11 11 10 10 9 9 9 8 8 7 7 7 7 7 8 9 10 11 12 13 15 16
12 15 17 19 19 18 15 12 10 10 11 11 11 11 10 10 10 9 8 8 8 8 7 7 6 5 4 2 2 3 5 7 9 11 13 15 16 17
9 12 15 17 17 16 14 12 11 11 10 10 10 10 10 10 9 9 8 8 8 8 7 7 6 5 3 2 2 3 5 7 9 11 13 15 16 17
9 12 15 16 16 16 15 13 12 12 11 10 10 9 10 10 10 9 8 9 9 9 9 8 7 6 4 3 3 4 5 6 8 10 11 13 14 16
14 14 15 15 15 15 15 15 14 13 12 11 11 11 10 10 10 10 10 10 10 10 10 9 8 6 4 2 2 3 4 6 7 9 10 12 14 15
17 16 16 16 16 16 17 16 15 13 13 12 12 11 11 11 12 12 11 11 11 11 10 8 7 5 3 1 1 2 4 6 7 9 11 12 14 15
19 19 18 17 17 17 16 16 15 14 13 13 12 12 12 13 13 13 13 12 11 10 8 6 5 3 2 1 2 3 4 6 8 10 12 13 15 16
20 19 18 18 17 17 16 16 15 14 14 14 14 14 14 14 14 13 12 11 10 8 6 5 4 3 2 2 3 4 5 7 9 11 13 15 16 17
21 20 19 18 17 17 16 16 16 15 16 15 15 15 15 14 13 12 11 10 8 7 6 5 4 3 3 3 3 5 7 9 11 13 15 16 17 18
21 20 19 19 18 17 17 17 17 16 16 16 16 15 14 13 12 11 9 8 7 6 5 4 4 3 3 3 5 7 9 11 13 14 16 17 18 18
18 18 18 17 17 17 17 16 16 16 16 15 14 13 12 11 10 9 8 6 5 5 4 3 2 1 2 4 7 9 11 13 14 15 16 17 18 19
Wind_Direction
253 256 257 257 258 258 258 256 252 249 249 250 249 253 253 254 253 254 254 256 258 262 265 267 268 268 269 270 272 275 278 279 278 278 277 276 276 275
255 257 258 258 258 258 257 256 252 250 249 247 247 249 251 252 254 255 255 255 258 260 261 264 265 266 267 269 272 275 278 279 280 279 278 278 277 276
256 256 257 257 257 256 256 255 252 251 250 247 246 246 248 251 253 255 257 258 259 258 259 261 262 262 264 267 271 274 278 280 280 279 279 280 280 279
255 255 255 254 253 252 253 254 252 251 249 248 247 246 249 251 254 256 259 261 259 258 258 258 259 261 264 267 271 275 278 281 282 281 280 281 282 281
254 252 252 250 249 249 251 251 249 250 249 247 247 247 248 250 252 256 259 260 258 258 257 257 258 261 265 269 273 276 279 282 283 283 283 283 283 283
252 250 249 247 246 247 247 245 247 246 244 245 246 245 246 248 251 253 255 256 256 254 254 255 258 261 266 271 277 279 281 283 283 284 284 284 283 284
250 248 246 243 242 241 240 240 242 242 242 243 242 244 245 246 248 249 250 250 249 248 250 253 257 263 269 274 278 281 284 284 285 286 286 285 284 285
248 247 246 242 239 238 237 237 236 238 237 236 235 237 240 242 243 241 240 242 242 243 247 253 260 265 270 275 278 281 284 287 288 288 288 288 287 287
248 243 239 235 231 231 230 227 227 226 225 226 227 227 231 232 231 231 234 236 238 242 246 252 258 263 269 272 277 284 287 289 291 293 294 293 292 291
247 241 234 227 219 213 212 213 215 216 216 217 216 217 219 221 223 226 229 231 237 242 246 251 256 261 267 272 278 286 291 292 293 294 295 297 297 297
243 237 230 223 214 207 202 197 198 200 200 202 203 203 206 208 212 217 222 229 235 240 244 249 256 263 269 275 282 289 294 296 299 302 305 306 307 308
236 230 225 219 210 203 200 196 191 185 182 183 185 186 189 197 204 211 218 225 231 235 241 246 254 260 268 275 283 291 299 306 311 315 321 325 330 334
227 221 215 210 207 201 202 200 194 186 179 179 181 183 188 196 201 205 211 219 227 232 236 239 243 250 260 273 287 302 314 326 336 346 353 359 3 6
216 211 206 202 201 200 196 191 184 177 175 177 179 181 185 191 195 197 203 211 215 216 215 215 219 225 236 257 303 341 355 5 11 16 19 20 21 22
186 188 187 189 191 193 191 185 180 177 175 174 178 183 186 187 187 189 195 199 199 193 189 187 186 179 169 139 63 42 35 32 30 29 28 28 28 28
142 155 164 170 176 177 175 174 172 169 167 166 170 176 180 179 178 179 180 178 174 170 168 165 163 158 147 125 81 55 41 35 30 27 25 24 23 22
112 127 141 150 158 164 166 165 163 163 164 164 164 165 167 169 170 167 163 161 159 156 154 155 154 152 148 136 71 39 28 21 17 13 10 9 7 6
99 111 123 133 140 147 151 155 157 159 159 159 158 160 161 160 158 156 154 153 151 149 148 149 152 153 149 130 35 17 9 3 358 355 354 353 352 351
94 102 111 118 126 131 136 142 146 149 150 151 152 151 151 150 149 148 146 146 146 146 144 142 143 139 123 81 43 16 2 355 352 350 349 347 345 344
91 98 105 112 119 125 130 136 141 143 144 146 145 145 144 144 143 143 143 142 141 141 138 131 126 119 104 69 35 18 6 357 352 348 346 344 343 341
87 93 100 108 113 119 124 129 133 136 138 139 140 140 141 142 142 141 141 141 138 134 128 122 116 108 90 59 28 10 359 350 345 343 341 341 341 340
85 91 96 101 107 112 117 122 127 130 133 135 137 138 139 140 141 140 140 138 133 129 124 120 113 96 63 25 2 350 343 340 339 339 338 338 338 339
84 88 93 98 103 109 114 119 123 126 128 131 133 135 137 139 139 138 137 137 135 133 131 125 108 53 357 340 334 331 331 331 333 334 334 336 337 339
Height
5823 5825 5826 5827 5828 5829 5830 5831 5833 5834 5836 5838 5840 5842 5844 5846 5848 5849 5851 5852 5853 5854 5854 5855 5855 5855 5855 5855 5854 5854 5853 5853 5851 5850 5849 5848 5847 5846
5814 5815 5817 5818 5819 5820 5821 5822 5824 5825 5827 5830 5832 5834 5836 5838 5840 5841 5843 5844 5845 5846 5847 5847 5848 5848 5848 5848 5848 5848 5847 5846 5845 5844 5843 5842 5841 5840
5804 5805 5807 5808 5809 5811 5812 5813 5815 5817 5818 5821 5823 5826 5828 5830 5831 5833 5835 5836 5837 5838 5839 5840 5840 5841 5841 5841 5841 5841 5840 5840 5839 5838 5837 5836 5834 5833
5793 5794 5796 5798 5799 5801 5803 5804 5806 5808 5810 5812 5815 5817 5820 5822 5824 5825 5827 5828 5829 5830 5831 5833 5833 5834 5835 5835 5835 5835 5834 5833 5833 5832 5831 5829 5828 5826
5782 5784 5785 5787 5789 5791 5793 5795 5797 5799 5802 5804 5806 5809 5811 5814 5816 5818 5820 5821 5822 5824 5825 5826 5827 5828 5829 5829 5829 5829 5828 5827 5826 5825 5824 5823 5821 5819
5773 5774 5775 5777 5780 5782 5784 5786 5788 5791 5794 5796 5799 5801 5804 5806 5809 5811 5813 5815 5816 5817 5819 5820 5821 5822 5823 5824 5824 5823 5822 5821 5820 5819 5818 5816 5814 5812
5765 5766 5767 5769 5771 5773 5775 5777 5780 5783 5786 5788 5791 5794 5797 5800 5803 5804 5807 5808 5810 5812 5814 5815 5817 5818 5818 5818 5818 5818 5817 5815 5814 5813 5811 5809 5807 5805
5758 5759 5760 5762 5764 5766 5768 5770 5773 5776 5779 5782 5785 5788 5791 5794 5796 5799 5801 5804 5805 5808 5809 5811 5812 5813 5813 5813 5813 5813 5812 5810 5809 5807 5805 5803 5800 5798
5752 5753 5754 5756 5758 5760 5762 5764 5766 5769 5772 5776 5779 5782 5785 5788 5791 5794 5797 5799 5801 5803 5805 5807 5808 5809 5809 5809 5809 5808 5807 5806 5804 5802 5799 5797 5794 5790
5746 5747 5749 5751 5753 5755 5757 5760 5762 5764 5767 5771 5774 5777 5781 5784 5788 5790 5792 5795 5797 5800 5801 5803 5804 5804 5805 5805 5804 5804 5802 5801 5799 5796 5794 5791 5787 5783
5740 5741 5744 5746 5749 5752 5754 5756 5758 5761 5764 5767 5770 5774 5777 5781 5784 5787 5790 5792 5794 5796 5797 5799 5800 5800 5801 5801 5800 5800 5798 5797 5794 5792 5788 5785 5781 5777
5734 5736 5739 5742 5745 5749 5752 5754 5756 5759 5762 5765 5768 5772 5775 5779 5782 5785 5787 5789 5791 5793 5794 5795 5796 5797 5798 5797 5797 5796 5795 5793 5791 5788 5784 5781 5777 5773
5728 5731 5734 5738 5742 5746 5749 5752 5755 5758 5761 5764 5768 5771 5774 5777 5780 5782 5784 5786 5788 5790 5791 5792 5793 5794 5795 5795 5795 5794 5792 5790 5788 5785 5782 5778 5775 5771
5723 5727 5730 5735 5739 5744 5748 5751 5755 5758 5761 5764 5767 5770 5773 5776 5778 5780 5782 5784 5786 5787 5788 5790 5791 5792 5793 5793 5793 5792 5791 5789 5786 5784 5781 5777 5774 5770
5721 5724 5728 5734 5738 5743 5747 5752 5755 5758 5761 5764 5767 5769 5772 5774 5777 5779 5780 5782 5784 5785 5787 5789 5790 5791 5792 5793 5792 5791 5790 5788 5786 5783 5781 5778 5774 5771
5722 5725 5729 5734 5739 5744 5748 5752 5755 5758 5761 5764 5767 5769 5772 5774 5776 5778 5780 5782 5783 5785 5787 5788 5790 5791 5792 5792 5792 5791 5790 5788 5786 5784 5781 5778 5775 5771
5727 5729 5733 5737 5741 5745 5749 5753 5756 5759 5762 5765 5767 5770 5772 5774 5776 5778 5780 5782 5784 5785 5787 5789 5790 5791 5791 5792 5791 5791 5789 5788 5786 5783 5781 5778 5774 5771
5734 5736 5738 5741 5744 5748 5751 5755 5758 5761 5764 5766 5768 5771 5773 5775 5777 5779 5781 5783 5785 5787 5788 5789 5790 5791 5792 5791 5791 5790 5789 5787 5785 5782 5780 5777 5774 5770
5742 5743 5744 5746 5749 5752 5755 5758 5760 5763 5766 5768 5770 5772 5774 5776 5778 5781 5783 5784 5786 5788 5789 5790 5791 5791 5791 5791 5790 5789 5788 5786 5784 5781 5778 5775 5772 5769
5750 5750 5751 5753 5754 5756 5759 5761 5764 5766 5768 5771 5773 5775 5777 5779 5781 5783 5785 5786 5788 5789 5790 5790 5791 5791 5791 5790 5789 5788 5786 5784 5782 5779 5776 5773 5770 5766
5758 5758 5758 5759 5760 5762 5764 5765 5767 5769 5771 5774 5776 5778 5780 5782 5783 5785 5786 5788 5789 5790 5790 5791 5791 5790 5790 5789 5788 5787 5785 5783 5780 5777 5774 5771 5768 5764
5766 5766 5766 5766 5767 5768 5769 5770 5772 5774 5775 5777 5779 5781 5782 5784 5786 5787 5788 5789 5790 5790 5791 5791 5790 5790 5789 5788 5787 5785 5783 5781 5778 5775 5772 5769 5765 5761
5774 5773 5773 5773 5773 5774 5774 5775 5777 5778 5780 5781 5782 5784 5785 5786 5787 5788 5789 5790 5790 5791 5791 5790 5790 5789 5788 5787 5785 5783 5781 5778 5775 5772 5769 5765 5762 5758